Location: Congrier
(47.8099°N, 1.1170°W)
Time: 13:21:37
(UTC+00:00)

NOSS 2-1 (C) - Pass Details

Date: 28 January 2023
Orbit: 407 x 1771 km, 63.4° (Epoch: 11 March)

Event Time Altitude Azimuth Distance (km) Brightness Sun altitude
Rises 18:50:50 0° 316° (NW) 2,738 7.4 -18.8°
Reaches altitude 10° 18:52:46 10° 313° (NW) 1,967 6.7 -19.2°
Maximum altitude 18:57:06 61° 233° (SW) 856 4.4 -19.9°
Drops below altitude 10° 19:03:14 10° 155° (SSE) 2,748 6.6 -20.9°
Sets 19:06:21 0° 152° (SSE) 3,936 7.4 -21.4°
